Regional Weather Roundup
Issued by NWS

Home | Current Version | Previous Version | Text Only | Print | Product List | Glossary Off
Versions: 1 2 3 4 5 6 7 8 9 10 11 12 13 14 15 16 17 18 19 20 21 22 23 24 25 26 27 28

000
ASUS45 KPSR 221810
RWRAZ

ARIZONA HOURLY REGIONAL WEATHER ROUNDUP
NATIONAL WEATHER SERVICE PHOENIX AZ
1100 AM MST FRI JUL 22 2016

NOTE: FAIR INDICATES FEW OR NO CLOUDS BELOW 12,000 FEET WITH NO
SIGNIFICANT WEATHER AND/OR OBSTRUCTIONS TO VISIBILITY.

AZZ001>003-036-221900-
NORTHWEST ARIZONA

CITY           SKY/WX    TMP DP  RH WIND       PRES   REMARKS
BULLHEAD CITY  SUNNY    106  32   8 SW10      29.89F
KINGMAN        SUNNY    100  41  13 SW14G20   30.13S
6HR MIN TEMP:  78; 6HR MAX TEMP: 101;

$$

AZZ004>008-015-016-018-221900-
NORTH CENTRAL ARIZONA

CITY           SKY/WX    TMP DP  RH WIND       PRES   REMARKS
GRAND CANYON   MOSUNNY   87  45  23 S7        30.41S
6HR MIN TEMP:  54; 6HR MAX TEMP:  88;

WILLIAMS       MOSUNNY   81  46  30 VRB5G14   30.49F
PRESCOTT       SUNNY     91  51  25 VRB3      30.28F
6HR MIN TEMP:  68; 6HR MAX TEMP:  91;

FLAGSTAFF      MOSUNNY   78  52  40 SW8       30.45F
6HR MIN TEMP:  52; 6HR MAX TEMP:  79;

PAYSON         SUNNY     90  52  27 VRB5      30.31F
PAGE           SUNNY     93  51  23 N6        30.20F
6HR MIN TEMP:  79; 6HR MAX TEMP:  95;

$$

AZZ009>014-017-221900-
NORTHEAST ARIZONA

CITY           SKY/WX    TMP DP  RH WIND       PRES   REMARKS
WINSLOW        SUNNY     94  51  23 N6        30.26F
6HR MIN TEMP:  63; 6HR MAX TEMP:  94;

SAINT JOHNS    SUNNY     88  48  25 VRB6      30.34S
6HR MIN TEMP:  57; 6HR MAX TEMP:  89;

WINDOW ROCK    SUNNY     85  50  29 CALM      30.43S
6HR MIN TEMP:  59; 6HR MAX TEMP:  85;

SHOW LOW       SUNNY     81  48  32 NW3       30.41S
$$

AZZ023-221900-
GREATER PHOENIX AREA

CITY           SKY/WX    TMP DP  RH WIND       PRES   REMARKS
PHOENIX        PTSUNNY  101  56  22 VRB3      29.94F HX 100
6HR MIN TEMP:  91; 6HR MAX TEMP: 102;

BUCKEYE        PTSUNNY  102  55  21 SE8       29.95F HX 101
GLENDALE       MOSUNNY  102  55  21 E3        29.96F HX 101
LUKE AFB       MOSUNNY  104  58  22 E3        29.94S HX 103
6HR MIN TEMP:  91; 6HR MAX TEMP: 104;

DEER VALLEY    MOSUNNY  101  55  21 S6        29.97S
6HR MIN TEMP:  90; 6HR MAX TEMP: 101;

SCOTTSDALE     MOSUNNY  103  54  19 VRB6      29.98F HX 101
6HR MIN TEMP:  90; 6HR MAX TEMP: 103;

MESA-FALCON    MOSUNNY  N/A N/A N/A S6        29.94F
MESA-GATEWAY   MOSUNNY  100  55  22 NW7       29.97F
CHANDLER       PTSUNNY  102  57  22 VRB5      29.96F HX 101
$$

AZZ027-028-221900-
SOUTHWEST MARICOPA COUNTY AND PINAL COUNTY

CITY           SKY/WX    TMP DP  RH WIND       PRES   REMARKS
CASA GRANDE    SUNNY    102  55  21 W5        29.99F HX 101
6HR MIN TEMP:  86; 6HR MAX TEMP: 102;

GILA BEND      PTSUNNY  105  52  17 NW6       29.91S HX 102
6HR MIN TEMP:  93; 6HR MAX TEMP: 105;

$$

AZZ503-504-507>509-221900-
SOUTHEAST ARIZONA

CITY           SKY/WX    TMP DP  RH WIND       PRES   REMARKS
TUCSON         SUNNY     97  53  22 VRB3      30.09S
6HR MIN TEMP:  82; 6HR MAX TEMP:  98;

DAVIS-MONTHAN  SUNNY     96  54  23 NW8       30.07F
6HR MIN TEMP:  82; 6HR MAX TEMP:  96;

RYAN FIELD     SUNNY     97  55  24 CALM      30.07F
NOGALES        SUNNY     90  53  28 CALM      30.19S
6HR MIN TEMP:  71; 6HR MAX TEMP:  90; 6HR PCP: TRACE;

SIERRA VISTA   SUNNY     87  49  26 VRB3      30.27R
6HR MIN TEMP:  66; 6HR MAX TEMP:  88;

DOUGLAS        SUNNY     88  57  34 N5        30.20F
6HR MIN TEMP:  66; 6HR MAX TEMP:  88;

SAFFORD        SUNNY     93  58  30 S9        30.11F
6HR MIN TEMP:  74; 6HR MAX TEMP:  94;

$$

AZZ020-021-025-026-031-221900-
SOUTHWEST ARIZONA

CITY           SKY/WX    TMP DP  RH WIND       PRES   REMARKS
YUMA           PTSUNNY  104  53  18 S8        29.88S HX 102
6HR MIN TEMP:  88; 6HR MAX TEMP: 104;

$$

CAZ031-033-041-043-047-048-061-221900-
SOUTHERN CALIFORNIA

CITY           SKY/WX    TMP DP  RH WIND       PRES   REMARKS
DOWNTOWN L.A.  SUNNY     90  57  32 CALM      29.93S
6HR MIN TEMP:  68; 6HR MAX TEMP:  90;

L.A. AIRPORT   MOSUNNY   84  61  45 W8        29.95R
6HR MIN TEMP:  68; 6HR MAX TEMP:  84;

SAN DIEGO      MOSUNNY   80  66  62 NW9       29.94F
6HR MIN TEMP:  67; 6HR MAX TEMP:  81;

BURBANK        SUNNY     93  45  19 SE7       29.96S
6HR MIN TEMP:  72; 6HR MAX TEMP:  93;

ONTARIO        SUNNY     93  44  18 W3        29.97S
6HR MIN TEMP:  72; 6HR MAX TEMP:  94;

RIVERSIDE      SUNNY     96  36  12 CALM      29.96F
6HR MIN TEMP:  70; 6HR MAX TEMP:  96;

PALM SPRINGS   SUNNY    110  39   9 SE8       29.89S HX 104
6HR MIN TEMP:  86; 6HR MAX TEMP: 110;

EL CENTRO NAS  MOSUNNY  107  46  13 SE10      29.86S HX 103
6HR MIN TEMP:  84; 6HR MAX TEMP: 107;

IMPERIAL       SUNNY    108  56  18 E7        29.84S HX 107
6HR MIN TEMP:  86; 6HR MAX TEMP: 109;

BLYTHE         SUNNY    107  42  11 S7        29.89S HX 102
6HR MIN TEMP:  87; 6HR MAX TEMP: 108;

NEEDLES        SUNNY    111  38   8 SE10      29.91S HX 104
6HR MIN TEMP:  92; 6HR MAX TEMP: 111;

$$

NVZ020-UTZ003-221900-
SOUTHERN NEVADA-UTAH

CITY           SKY/WX    TMP DP  RH WIND       PRES   REMARKS
LAS VEGAS      MOSUNNY  106  26   6 SE10      29.96S
6HR MIN TEMP:  87; 6HR MAX TEMP: 106;

SALT LAKE CITY MOSUNNY   96  46  18 S12G20    30.11S
6HR MIN TEMP:  81; 6HR MAX TEMP:  96;

$$

NMZ009-TXZ055-221900-
NEW MEXICO-WEST TEXAS

CITY           SKY/WX    TMP DP  RH WIND       PRES   REMARKS
ALBUQUERQUE    MOSUNNY   88  47  24 W6        30.30F
6HR MIN TEMP:  67; 6HR MAX TEMP:  88;

EL PASO        MOSUNNY   93  50  23 VRB5      30.16F
6HR MIN TEMP:  76; 6HR MAX TEMP:  94;

$$


........................KEY........................
SKY/WX - SKY CONDITION/WEATHER
TMP    - TEMPERATURE IN FAHRENHEIT
DP     - DEW POINT IN FAHRENHEIT
RH     - RELATIVE HUMIDITY IN PERCENT
WIND   - DIRECTION AND SPEED IN MILES PER HOUR (MPH)
VRB    - VARIABLE WIND DIRECTION
PRES   - MEAN SEA LEVEL PRESSURE IN INCHES OF MERCURY
         F - FALLING PRESSURE   R - RISING PRESSURE
         S - STEADY PRESSURE
VSB    - VISIBILITY IN MILES
HX     - HEAT INDEX IN FAHRENHEIT
WCI    - WIND CHILL INDEX IN FAHRENHEIT
TC     - TEMPERATURE IN CELSIUS WHICH IS ALSO KNOWN AS
         TEMPERATURE IN CENTIGRADE
AFB    - AIR FORCE BASE
         LUKE AFB IS LUKE AIR FORCE BASE
         DAVIS-MONTHAN IS DAVIS-MONTHAN AIR FORCE BASE
NAS    - NAVAL AIR STATION
         EL CENTRO NAS IS EL CENTRO NAVAL AIR STATION
N/A    - NOT AVAILABLE





USA.gov is the U.S. government's official web portal to all federal, state and local government web resources and services.